Location: Newark
(6.1167°N, 1.2167°E)
Time: 09:21:45
(UTC+00:00)

Hubble Space Telescope - Pass Details

Date: 25 October 2019
Orbit: 536 x 540 km, 28.5° (Epoch: 13 November)

Event Time Altitude Azimuth Distance (km) Brightness Sun altitude
Exits shadow 03:44:28 28° 73° (ENE) 1,007 2.6 -29.3°
Drops below altitude 10° 03:46:33 10° 67° (ENE) 1,775 4.1 -28.8°
Sets 03:48:48 0° 64° (ENE) 2,664 5.1 -28.2°
